Location: Albany
(35.0000°S, 118.0000°E)
Time: 07:52:58
(UTC-04:00)

ISS - All Passes

Search period start: 23 May 2015 00:00
Search period end: 02 June 2015 00:00
Orbit: 399 x 404 km, 51.6° (Epoch: 23 May)

Date Brightness Start Highest point End Pass type
(mag) Time Alt. Az. Time Alt. Az. Time Alt. Az.
23 May - 00:21:12 10° NW 00:24:29 71° SW 00:27:49 10° SE daylight
23 May - 02:00:22 10° SW 02:01:27 11° SSW 02:02:29 10° S daylight
23 May - 06:51:39 10° SSW 06:54:35 29° SE 06:57:31 10° E visible
23 May - 08:28:16 10° WSW 08:30:55 22° NW 08:33:31 10° N night (unlit)
23 May - 23:28:07 10° NNW 23:31:19 50° NE 23:34:33 10° ESE daylight
24 May - 01:05:39 10° WSW 01:07:58 17° SSW 01:10:15 10° SSE daylight
24 May - 05:58:55 10° SSW 06:01:11 17° SSE 06:03:29 10° ESE visible
24 May - 07:34:37 10° WSW 07:37:49 49° NW 07:40:59 10° NNE visible
24 May - 22:35:35 10° N 22:38:12 22° NE 22:40:54 10° ESE daylight
25 May - 00:11:35 10° W 00:14:32 29° SW 00:17:30 10° SSE daylight
25 May - 05:06:40 10° S 05:07:39 11° SSE 05:08:44 10° SE daylight
25 May - 06:41:19 10° SW 06:44:37 71° SE 06:47:53 10° NE visible
25 May - 21:44:27 10° NE 21:45:07 11° NE 21:45:56 10° ENE daylight
25 May - 23:17:57 10° WNW 23:21:12 58° SW 23:24:29 10° SE daylight
26 May - 00:57:55 10° SSW 00:58:15 10° SSW 00:58:29 10° SSW daylight
26 May - 05:48:15 10° SSW 05:51:18 33° SE 05:54:20 10° ENE visible
26 May - 07:25:09 10° W 07:27:34 19° NW 07:29:53 10° N visible
26 May - 22:24:40 10° NW 22:27:56 62° NE 22:31:13 10° SE daylight
27 May - 00:02:33 10° WSW 00:04:39 15° SSW 00:06:42 10° S daylight
27 May - 04:55:23 10° SSW 04:57:51 19° SSE 05:00:20 10° E daylight
27 May - 06:31:17 10° WSW 06:34:24 40° NW 06:37:29 10° NNE visible
27 May - 21:31:54 10° N 21:34:43 27° NE 21:37:36 10° ESE daylight
27 May - 23:08:17 10° W 23:11:07 25° SW 23:13:57 10° SSE daylight
28 May - 04:02:51 10° S 04:04:16 12° SSE 04:05:46 10° SE daylight
28 May - 05:37:50 10° SW 05:41:09 86° SE 05:44:26 10° NE visible
28 May - 20:40:04 10° NNE 20:41:33 13° NE 20:43:10 10° E daylight
28 May - 22:14:28 10° WNW 22:17:41 48° SW 22:20:55 10° SE daylight
29 May - 04:44:38 10° SSW 04:47:47 39° SE 04:50:53 10° ENE daylight
29 May - 06:21:52 10° W 06:23:58 16° NW 06:25:58 10° NNW visible
29 May - 21:21:02 10° NW 21:24:19 76° NE 21:27:38 10° SE daylight
29 May - 22:59:14 10° WSW 23:01:06 14° SSW 23:02:55 10° S daylight
30 May - 03:51:38 10° SSW 03:54:16 22° SSE 03:56:55 10° E daylight
30 May - 05:27:43 10° WSW 05:30:45 33° NW 05:33:44 10° NNE visible
30 May - 20:28:03 10° NNW 20:31:01 32° NE 20:34:03 10° ESE daylight
30 May - 22:04:47 10° W 22:07:29 22° SSW 22:10:10 10° SSE daylight
31 May - 02:58:54 10° S 03:00:39 14° SSE 03:02:26 10° ESE daylight
31 May - 04:34:08 10° SW 04:37:27 79° NW 04:40:43 10° NE daylight
31 May - 19:35:48 10° NNE 19:37:46 15° NE 19:39:49 10° E daylight
31 May - 21:10:47 10° WNW 21:13:56 41° SW 21:17:06 10° SE daylight
01 Jun - 03:40:48 10° SW 03:44:01 46° SE 03:47:12 10° ENE daylight
01 Jun - 05:18:28 10° W 05:20:09 13° NW 05:21:42 10° NNW daylight
01 Jun - 20:17:11 10° NW 20:20:28 89° WSW 20:23:49 10° SE daylight
01 Jun - 21:55:46 10° SW 21:57:20 13° SSW 21:58:51 10° S daylight
